MON6846 EGKK-LOWI

Flight info

Callsign MON6846
Flight time N/A
Altitude 37000
Route DVR L9 KONAN DCT KOK UL607 FERDI DCT REMBA DCT LIRSU DCT KRH DCT TEDGO/N0442F350 DCT BATUB/N0435F310 M738 MADEB MADEB1B
Aircraft A320/M-SDE3FGHIRWY/LB1

Departure

Time 2026-05-04 18:03
Airport London Gatwick Airport (EGKK)

Arrival

Time N/A
Airport Innsbruck Airport (LOWI)
Time Latitude Longitude Altitude Speed Heading
2026-05-04 17:08 51.15483 -0.16908 211 ft 0 kts 347°
2026-05-04 17:39 51.15482 -0.16908 210 ft 1 kts 347°
2026-05-04 17:40 51.15459 -0.16900 210 ft 4 kts 347°
2026-05-04 17:40 51.15438 -0.16893 210 ft 4 kts 347°
2026-05-04 17:40 51.15422 -0.16886 210 ft 4 kts 275°
2026-05-04 17:40 51.15425 -0.16847 210 ft 4 kts 257°
2026-05-04 17:41 51.15428 -0.16829 210 ft 0 kts 258°
2026-05-04 17:43 51.15427 -0.16830 210 ft 1 kts 258°
2026-05-04 17:43 51.15425 -0.16851 210 ft 2 kts 258°
2026-05-04 17:43 51.15421 -0.16879 210 ft 5 kts 258°
2026-05-04 17:43 51.15404 -0.16996 210 ft 15 kts 258°
2026-05-04 17:44 51.15388 -0.17117 210 ft 18 kts 258°
2026-05-04 17:44 51.15358 -0.17311 210 ft 18 kts 238°
2026-05-04 17:44 51.15287 -0.17462 210 ft 17 kts 259°
2026-05-04 17:44 51.15263 -0.17648 210 ft 17 kts 257°
2026-05-04 17:45 51.15238 -0.17835 210 ft 17 kts 258°
2026-05-04 17:45 51.15213 -0.18024 210 ft 17 kts 258°
2026-05-04 17:45 51.15188 -0.18214 210 ft 18 kts 258°
2026-05-04 17:45 51.15164 -0.18405 210 ft 18 kts 260°
2026-05-04 17:46 51.15141 -0.18595 210 ft 18 kts 257°
2026-05-04 17:46 51.15113 -0.18790 210 ft 18 kts 257°
2026-05-04 17:46 51.15086 -0.18984 210 ft 18 kts 258°
2026-05-04 17:46 51.15060 -0.19179 210 ft 18 kts 258°
2026-05-04 17:47 51.15033 -0.19374 210 ft 18 kts 258°
2026-05-04 17:47 51.15007 -0.19572 210 ft 18 kts 258°
2026-05-04 17:47 51.14979 -0.19772 210 ft 19 kts 257°
2026-05-04 17:47 51.14951 -0.19973 210 ft 19 kts 257°
2026-05-04 17:48 51.14923 -0.20177 210 ft 19 kts 258°
2026-05-04 17:48 51.14895 -0.20382 210 ft 19 kts 258°
2026-05-04 17:48 51.14867 -0.20589 210 ft 19 kts 257°
2026-05-04 17:48 51.14838 -0.20797 210 ft 19 kts 257°
2026-05-04 17:49 51.14809 -0.21003 210 ft 18 kts 257°
2026-05-04 17:49 51.14784 -0.21163 210 ft 14 kts 251°
2026-05-04 17:49 51.14760 -0.21288 210 ft 0 kts 256°
2026-05-04 17:51 51.14760 -0.21289 210 ft 0 kts 256°
2026-05-04 17:51 51.14756 -0.21313 210 ft 5 kts 256°
2026-05-04 17:51 51.14745 -0.21387 210 ft 7 kts 252°
2026-05-04 17:52 51.14726 -0.21411 210 ft 0 kts 171°
2026-05-04 17:54 51.14719 -0.21409 210 ft 4 kts 171°
2026-05-04 17:54 51.14694 -0.21403 210 ft 0 kts 167°
2026-05-04 17:57 51.14692 -0.21402 210 ft 1 kts 167°
2026-05-04 17:57 51.14689 -0.21401 210 ft 0 kts 167°
2026-05-04 17:58 51.14688 -0.21401 210 ft 1 kts 167°
2026-05-04 17:58 51.14670 -0.21388 210 ft 5 kts 143°
2026-05-04 17:59 51.14640 -0.21337 210 ft 7 kts 154°
2026-05-04 17:59 51.14613 -0.21328 210 ft 0 kts 168°
2026-05-04 18:01 51.14609 -0.21326 210 ft 2 kts 168°
2026-05-04 18:02 51.14517 -0.21235 210 ft 12 kts 111°
2026-05-04 18:02 51.14527 -0.21071 210 ft 20 kts 77°
2026-05-04 18:02 51.14610 -0.20463 211 ft 94 kts 77°
2026-05-04 18:02 51.14798 -0.19094 213 ft 155 kts 78°
2026-05-04 18:03 51.15025 -0.17375 742 ft 159 kts 78°
2026-05-04 18:03 51.15244 -0.15628 1403 ft 163 kts 78°
2026-05-04 18:03 51.15505 -0.13856 2041 ft 173 kts 75°
2026-05-04 18:03 51.15839 -0.11876 2383 ft 192 kts 75°
2026-05-04 18:04 51.16154 -0.09734 2788 ft 206 kts 76°
2026-05-04 18:04 51.16482 -0.07398 3147 ft 227 kts 76°
2026-05-04 18:04 51.17024 -0.02122 4188 ft 258 kts 88°
2026-05-04 18:05 51.17009 0.00777 4928 ft 265 kts 91°
2026-05-04 18:05 51.16950 0.03728 5718 ft 269 kts 91°
2026-05-04 18:05 51.16925 0.06734 6491 ft 273 kts 89°
2026-05-04 18:05 51.16935 0.09789 7253 ft 278 kts 89°
2026-05-04 18:06 51.16943 0.16042 8749 ft 286 kts 90°
2026-05-04 18:06 51.16929 0.19231 9469 ft 290 kts 90°
2026-05-04 18:06 51.16917 0.22472 10197 ft 294 kts 90°
2026-05-04 18:07 51.16907 0.25783 10744 ft 305 kts 90°
2026-05-04 18:07 51.16897 0.29259 11106 ft 321 kts 91°
2026-05-04 18:07 51.16886 0.32899 11496 ft 336 kts 91°
2026-05-04 18:07 51.16875 0.36703 11889 ft 349 kts 90°
2026-05-04 18:08 51.16868 0.40598 12498 ft 354 kts 90°
2026-05-04 18:08 51.16860 0.44529 13151 ft 357 kts 91°
2026-05-04 18:08 51.16850 0.48497 13792 ft 360 kts 91°
2026-05-04 18:08 51.16837 0.52498 14413 ft 363 kts 91°
2026-05-04 18:09 51.16807 0.60592 15601 ft 368 kts 91°
2026-05-04 18:09 51.16770 0.68823 16724 ft 374 kts 91°
2026-05-04 18:10 51.16749 0.72981 17265 ft 377 kts 91°
2026-05-04 18:10 51.16727 0.77171 17791 ft 380 kts 91°
2026-05-04 18:10 51.16704 0.81390 18302 ft 382 kts 91°
2026-05-04 18:10 51.16678 0.85640 18779 ft 385 kts 91°
2026-05-04 18:11 51.16652 0.89934 19237 ft 389 kts 91°
2026-05-04 18:11 51.16624 0.94260 19682 ft 392 kts 91°
2026-05-04 18:11 51.16592 0.98629 20121 ft 395 kts 92°
2026-05-04 18:11 51.16559 1.03021 20546 ft 399 kts 92°
2026-05-04 18:12 51.16525 1.07398 20953 ft 402 kts 92°
2026-05-04 18:12 51.16488 1.11923 21364 ft 405 kts 92°
2026-05-04 18:12 51.16449 1.16374 21759 ft 408 kts 92°
2026-05-04 18:12 51.16407 1.20908 22147 ft 411 kts 92°
2026-05-04 18:13 51.16364 1.25474 22523 ft 414 kts 92°